Find Starlink 30769

NORAD ID: 58138 Int'l Des: 2023-162 Owner: SPXS Country: US Constellation: starlink operational
LEOCIRCULAR

現在のビュー

3D地球を読み込み中...

About Starlink 30769

Starlink 30769 (NORAD 58138) is a starlink constellation satellite (v2 mini) launched Oct 22, 2023 by SPXS of US. It operates in LEO, CIRCULAR orbit with a mass of 730.00 kg.

Starlink 30769について

説明を読み込み中...

次回通過

Passes for default location (London). Set your location on the main map for personalized predictions.

高度履歴

Loading altitude history...

軌道要素

1 58138U 23162W 26194.97089722 -.00000059 00000-0 73825-5 0 9990
2 58138 43.0037 139.0190 0001402 268.5611 91.5080 15.27578975151627
Epoch: Jul 13, 2026 • Age: 14 hours

現在のステータス

高度 495.4 km
遠地点 / 近地点 N/A
速度 7.62 km/s
衛星直下点 -43.16°S, 82.77°W
打ち上げ日 Oct 22, 2023
運用期間 2.7 years
タイプ internet

技術仕様

分類 Payload
質量 730.00 kg
乾燥質量 700.00 kg
総質量 730.00 kg
長さ 0.30 m
直径 4.10 m
スパン 29.00 m
形状 Box + pan
製造者 SPXS
バスタイプ Starlink V2M
フェーズステータス In Orbit
所有者/国 SPXS/US

Most Searched